Frankfort, MI

5:46 PM EST on February 19, 2018 (GMT -0500)
Frankfort

Weather History for KFKS - October, 2013

Change the Weather History Date:

Sunday, October 20, 2013

  Actual Average (KMBL) Record (KMBL)
Temperature  
Mean Temperature 46 °F -  
Max Temperature 49 °F 55 °F 79 °F (1953)
Min Temperature 42 °F 38 °F 23 °F (1992)
Degree Days  
Heating Degree Days 20    
Moisture  
Dew Point 38 °F    
Average Humidity 71    
Maximum Humidity 92    
Minimum Humidity 58    
Precipitation  
Precipitation 0.00 in - - ()
Sea Level Pressure  
Sea Level Pressure 29.76 in    
Wind  
Wind Speed 7 mph (SW)    
Max Wind Speed 12 mph    
Max Gust Speed 22 mph    
Visibility 10 miles    
Events Rain    
Averages and records for this station are not official NWS values.
T = Trace of Precipitation, MM = Missing Value Source: NWS Daily Summary

Daily Weather History Graph

Daily Weather History Graph

Search for Another Location

Airport or City:

Trip Planner

Search our weather history database for the weather conditions in past years. The results will help you decide how hot, cold, wet, or windy it might be!

Date:

Astronomy

Oct. 20, 2013 Rise Set
Actual Time 8:06 AM EDT 6:51 PM EDT
Civil Twilight 7:37 AM EDT 7:21 PM EDT
Nautical Twilight 7:03 AM EDT 7:55 PM EDT
Astronomical Twilight 6:29 AM EDT 8:28 PM EDT
Moon 7:54 PM EDT (10/20) 9:48 AM EDT (10/20)
Length of Visible Light 11h 43m
Length of Day
10h 44m
Full, 97% of the Moon is Illuminated
Oct 20
Full
Oct 26
Last Quarter
Nov 3
New
Nov 10
First Quarter
Nov 17
Full

Hourly Weather History & Observations

Time (EDT) Temp. Windchill Dew Point Humidity Pressure Visibility Wind Dir Wind Speed Gust Speed Precip Events Conditions
12:16 AM 46.9 °F - 37.9 °F 71% 29.71 in 10.0 mi West 8.1 mph 21.9 mph N/A   Scattered Clouds
12:36 AM 46.9 °F - 37.8 °F 70% 29.72 in 10.0 mi West 10.4 mph 16.1 mph N/A   Mostly Cloudy
12:56 AM 47.3 °F - 37.4 °F 68% 29.72 in 10.0 mi West 11.5 mph 20.7 mph N/A   Mostly Cloudy
1:16 AM 46.9 °F - 37.4 °F 69% 29.72 in 10.0 mi WNW 10.4 mph 18.4 mph N/A   Mostly Cloudy
1:31 AM 47.1 °F - 37.0 °F 68% 29.72 in 10.0 mi WNW 9.2 mph - N/A   Mostly Cloudy
1:51 AM 47.3 °F - 37.6 °F 69% 29.72 in 10.0 mi West 11.5 mph 16.1 mph N/A   Overcast
2:11 AM 46.6 °F - 37.6 °F 71% 29.72 in 10.0 mi WNW 9.2 mph - N/A   Mostly Cloudy
2:31 AM 45.9 °F 42.3 °F 37.0 °F 71% 29.72 in 10.0 mi West 6.9 mph - N/A   Mostly Cloudy
2:51 AM 46.6 °F - 37.6 °F 71% 29.72 in 10.0 mi WNW 8.1 mph - N/A   Mostly Cloudy
3:11 AM 46.4 °F 43.5 °F 36.7 °F 69% 29.73 in 10.0 mi West 5.8 mph - N/A   Mostly Cloudy
3:32 AM 46.6 °F - 36.7 °F 68% 29.72 in 10.0 mi WNW 6.9 mph - N/A   Overcast
3:52 AM 46.4 °F 42.4 °F 36.9 °F 69% 29.72 in 10.0 mi West 8.1 mph - N/A   Overcast
4:12 AM 46.4 °F 42.9 °F 36.5 °F 68% 29.73 in 10.0 mi West 6.9 mph - N/A   Overcast
4:32 AM 46.2 °F 43.3 °F 36.0 °F 67% 29.73 in 10.0 mi West 5.8 mph - N/A   Mostly Cloudy
4:52 AM 46.4 °F 43.5 °F 35.1 °F 65% 29.73 in 10.0 mi West 5.8 mph - N/A   Mostly Cloudy
5:12 AM 46.4 °F 42.9 °F 35.1 °F 65% 29.73 in 10.0 mi WNW 6.9 mph - N/A   Overcast
5:32 AM 45.5 °F 44.2 °F 35.1 °F 67% 29.74 in 10.0 mi West 3.5 mph - N/A   Scattered Clouds
5:52 AM 45.5 °F 41.8 °F 35.6 °F 68% 29.74 in 10.0 mi West 6.9 mph - N/A   Scattered Clouds
6:12 AM 45.5 °F 44.2 °F 36.1 °F 70% 29.74 in 10.0 mi West 3.5 mph - N/A   Mostly Cloudy
6:33 AM 45.0 °F 41.8 °F 35.6 °F 70% 29.75 in 10.0 mi West 5.8 mph - N/A   Scattered Clouds
6:53 AM 45.1 °F 43.7 °F 36.5 °F 72% 29.75 in 10.0 mi West 3.5 mph - N/A   Mostly Cloudy
7:13 AM 44.8 °F 40.4 °F 36.5 °F 73% 29.76 in 10.0 mi West 8.1 mph - N/A   Overcast
7:33 AM 44.2 °F 42.7 °F 35.6 °F 72% 29.77 in 10.0 mi West 3.5 mph - N/A   Scattered Clouds
7:53 AM 43.7 °F - 35.4 °F 73% 29.77 in 10.0 mi Calm Calm - N/A   Scattered Clouds
8:13 AM 42.4 °F - 35.6 °F 77% 29.77 in 10.0 mi Calm Calm - N/A   Scattered Clouds
8:33 AM 44.1 °F 41.5 °F 35.2 °F 71% 29.78 in 10.0 mi WNW 4.6 mph - N/A   Scattered Clouds
8:53 AM 44.6 °F 40.7 °F 35.1 °F 69% 29.78 in 10.0 mi WNW 6.9 mph - N/A   Clear
9:14 AM 45.5 °F - 35.6 °F 68% 29.80 in 10.0 mi Calm Calm - N/A   Mostly Cloudy
9:34 AM 46.8 °F - 36.0 °F 66% 29.80 in 10.0 mi WSW 4.6 mph - N/A   Overcast
9:54 AM 46.6 °F - 35.8 °F 66% 29.81 in 10.0 mi West 6.9 mph - N/A   Mostly Cloudy
10:14 AM 47.5 °F - 35.6 °F 63% 29.81 in 10.0 mi WSW 5.8 mph - N/A   Mostly Cloudy
10:34 AM 49.1 °F - 35.1 °F 58% 29.82 in 10.0 mi WSW 9.2 mph - N/A   Mostly Cloudy
10:54 AM 47.3 °F - 35.6 °F 64% 29.82 in 10.0 mi WSW 4.6 mph - N/A   Overcast
11:14 AM 47.8 °F - 35.4 °F 62% 29.82 in 10.0 mi West 8.1 mph - N/A   Overcast
11:34 AM 48.2 °F - 34.9 °F 60% 29.82 in 10.0 mi WSW 6.9 mph - N/A   Overcast
11:54 AM 47.3 °F - 35.8 °F 64% 29.83 in 10.0 mi WSW 4.6 mph - N/A   Overcast
12:14 PM 48.0 °F - 36.1 °F 63% 29.83 in 10.0 mi WSW 6.9 mph - N/A   Overcast
12:34 PM 47.7 °F - 34.5 °F 60% 29.83 in 10.0 mi SW 3.5 mph - N/A   Scattered Clouds
12:55 PM 48.0 °F - 36.0 °F 63% 29.83 in 10.0 mi WSW 6.9 mph - N/A   Mostly Cloudy
1:15 PM 49.1 °F - 36.3 °F 61% 29.83 in 10.0 mi SSW 6.9 mph - N/A   Mostly Cloudy
1:35 PM 49.5 °F - 37.0 °F 62% 29.83 in 10.0 mi SW 9.2 mph - N/A   Mostly Cloudy
1:55 PM 49.3 °F - 36.1 °F 61% 29.82 in 10.0 mi SW 5.8 mph - N/A   Mostly Cloudy
2:15 PM 48.4 °F - 36.3 °F 63% 29.82 in 10.0 mi WSW 9.2 mph - N/A   Scattered Clouds
2:35 PM 49.6 °F - 37.2 °F 62% 29.81 in 10.0 mi South 9.2 mph - N/A   Mostly Cloudy
2:55 PM 49.8 °F - 36.1 °F 59% 29.81 in 10.0 mi SSW 9.2 mph - N/A   Scattered Clouds
3:16 PM 49.3 °F - 36.1 °F 61% 29.81 in 10.0 mi SSW 9.2 mph - N/A   Scattered Clouds
3:36 PM 49.6 °F - 36.7 °F 61% 29.80 in 10.0 mi SW 6.9 mph - N/A   Scattered Clouds
3:56 PM 49.3 °F - 36.0 °F 60% 29.80 in 10.0 mi SW 8.1 mph - N/A   Scattered Clouds
4:16 PM 49.3 °F - 36.3 °F 61% 29.79 in 10.0 mi SSW 8.1 mph - N/A   Scattered Clouds
4:36 PM 49.3 °F - 37.0 °F 63% 29.78 in 10.0 mi SSW 6.9 mph - N/A   Scattered Clouds
4:56 PM 49.3 °F - 37.4 °F 64% 29.78 in 10.0 mi South 5.8 mph - N/A   Scattered Clouds
5:16 PM 49.5 °F - 37.0 °F 62% 29.77 in 10.0 mi South 4.6 mph - N/A   Overcast
5:31 PM 49.5 °F - 37.2 °F 63% 29.77 in 10.0 mi South 3.5 mph - N/A   Overcast
5:51 PM 49.1 °F - 37.2 °F 64% 29.77 in 10.0 mi South 6.9 mph - N/A Rain Rain
6:11 PM 47.8 °F - 38.7 °F 70% 29.76 in 10.0 mi South 3.5 mph - N/A Rain Light Rain
6:31 PM 46.4 °F 44.3 °F 40.8 °F 81% 29.76 in 7.0 mi ESE 4.6 mph - N/A Rain Rain
6:51 PM 45.5 °F 43.2 °F 40.5 °F 83% 29.75 in 10.0 mi ESE 4.6 mph - N/A Rain Light Rain
7:12 PM 44.6 °F - 41.0 °F 87% 29.75 in 10.0 mi Calm Calm - N/A Rain Light Rain
7:32 PM 44.8 °F 42.4 °F 40.8 °F 86% 29.74 in 10.0 mi SE 4.6 mph - N/A   Light Drizzle
7:52 PM 44.8 °F 41.6 °F 41.0 °F 87% 29.74 in 10.0 mi SE 5.8 mph - N/A Rain Rain
8:12 PM 44.8 °F 41.6 °F 40.8 °F 86% 29.73 in 10.0 mi SE 5.8 mph - N/A   Drizzle
8:32 PM 44.6 °F 42.2 °F 41.0 °F 87% 29.73 in 10.0 mi SSE 4.6 mph - N/A Rain Rain
8:52 PM 44.6 °F 40.7 °F 41.5 °F 89% 29.72 in 10.0 mi SE 6.9 mph - N/A Rain Rain
9:12 PM 44.8 °F 40.4 °F 41.9 °F 90% 29.71 in 7.0 mi SE 8.1 mph - N/A Rain Rain
9:32 PM 45.0 °F 40.1 °F 42.1 °F 90% 29.70 in 10.0 mi SE 9.2 mph - N/A Rain Light Rain
9:53 PM 44.8 °F 39.9 °F 42.3 °F 91% 29.70 in 7.0 mi SE 9.2 mph - N/A Rain Light Rain
10:13 PM 45.0 °F 39.3 °F 42.8 °F 92% 29.68 in 7.0 mi SE 11.5 mph - N/A Rain Light Rain
10:33 PM 45.5 °F 41.3 °F 43.0 °F 91% 29.67 in 10.0 mi SSE 8.1 mph - N/A Rain Light Rain
10:53 PM 45.9 °F 41.7 °F 43.7 °F 92% 29.67 in 10.0 mi SSE 8.1 mph - N/A   Light Drizzle
11:13 PM 46.6 °F - 44.2 °F 92% 29.66 in 10.0 mi SSE 8.1 mph - N/A   Light Drizzle
11:33 PM 47.5 °F - 45.1 °F 92% 29.65 in 7.0 mi SSE 8.1 mph - N/A Rain Rain
11:53 PM 49.1 °F - 46.8 °F 92% 29.65 in 10.0 mi WSW 11.5 mph 21.9 mph N/A   Overcast